[Iaude] MPEC L59: 2018 LV3 [a=2.01,e=0.53,i=9.3,H=26.5]

mpec at mpcdb1.cfa.harvard.edu mpec at mpcdb1.cfa.harvard.edu
Tue Jun 12 09:47:33 EDT 2018


M.P.E.C. 2018-L59                                Issued 2018 June 12, 13:42 UT
 
     The Minor Planet Electronic Circulars contain information on unusual
         minor planets and routine data on comets.  They are published
    on behalf of Division F of the International Astronomical Union by the
          Minor Planet Center, Smithsonian Astrophysical Observatory,
                          Cambridge, MA 02138, U.S.A.

             Prepared using the Tamkin Foundation Computer Network

                              MPC at CFA.HARVARD.EDU
            URL https://www.minorplanetcenter.net/    ISSN 1523-6714


                                   2018 LV3
 
Observations:
     K18L03V* C2018 06 11.38233 15 38 51.728+07 13 55.55         19.9 iUEL059F52
     K18L03V  C2018 06 11.39234 15 38 50.612+07 13 04.87         20.5 iUEL059F52
     K18L03V  C2018 06 11.40231 15 38 49.492+07 12 13.38         20.3 iUEL059F52
     K18L03V  C2018 06 12.19175 15 39 37.64 +05 45 05.4          19.0 GUEL059I52
     K18L03V  C2018 06 12.19251 15 39 37.57 +05 44 58.9          19.4 GUEL059I52
     K18L03V  C2018 06 12.19327 15 39 37.47 +05 44 52.7          19.2 GUEL059I52
     K18L03V  C2018 06 12.19403 15 39 37.40 +05 44 46.8          19.1 GUEL059I52
     K18L03V KC2018 06 12.23745 15 39 37.72 +05 38 01.8          19.1 RqEL059G58
     K18L03V KC2018 06 12.24035 15 39 37.46 +05 37 36.8          18.9 RqEL059G58
     K18L03V KC2018 06 12.24424 15 39 37.10 +05 37 03.4          19.2 RqEL059G58
     K18L03V KC2018 06 12.24907 15 39 36.65 +05 36 21.4          19.0 RqEL059G58
     K18L03V KC2018 06 12.25343 15 39 36.19 +05 35 44.1          19.2 RqEL059G58
     K18L03V KC2018 06 12.25820 15 39 35.73 +05 35 02.4          18.8 RqEL059G58
     K18L03V  C2018 06 12.36613 15 39 20.34 +05 19 13.4          18.6 GUEL059I52
     K18L03V  C2018 06 12.36775 15 39 20.26 +05 18 57.8          19.0 GUEL059I52
     K18L03V  C2018 06 12.36793 15 39 20.23 +05 18 56.4          18.8 GUEL059I52
     K18L03V  C2018 06 12.37337 15 39 19.88 +05 18 04.3          19.0 GUEL059I52
     K18L03V KC2018 06 12.48315 15 39 54.80 +05 09 20.7          18.4 RqEL059E08
     K18L03V KC2018 06 12.49915 15 39 52.98 +05 06 40.9          18.3 RqEL059E08
 
Observer details:
E08 Wobblesock Observatory, Coonabarabran.  Observer J. Nott.  0.35-m
    reflector + CCD.
F52 Pan-STARRS 2, Haleakala.  Observers J. Bulger, T. Dukes, T. Lowe,
    A. Schultz, M. Willman.  Measurers K. Chambers, S. Chastel, L. Denneau,
    H. Flewelling, M. Huber, E. Magnier, Y. Ramanjooloo, R. Wainscoat,
    C. Waters, R. Weryk.  1.8-m Ritchey-Chretien + CCD.
G58 Chabot Space and Science Center, Oakland.  Observer G. McKeegan.  0.9-m
    f/4.5 Cassegrain + CCD.
I52 Steward Observatory, Mt. Lemmon Station.  Observer B. M. Africano.
    Measurers B. M. Africano, E. J. Christensen, D. C. Fuls, A. R. Gibbs,
    A. D. Grauer, H. Groeller, J. A. Johnson, R. A. Kowalski, S. M. Larson,
    G. J. Leonard, R. L. Seaman, F. C. Shelly.  1.0-m reflector + CCD.
 
Orbital elements:
2018 LV3                                                 Earth MOID = 0.0023 AU
Epoch 2018 Mar. 23.0 TT = JDT 2458200.5                 MPC
M 321.07525              (2000.0)            P               Q
n   0.34655158     Peri.  215.92339     +0.47817242     +0.86356061
a   2.0073547      Node    83.14088     -0.76348777     +0.49878967
e   0.5254452      Incl.    9.27645     -0.43409396     +0.07397258
P   2.84           H   26.5           G   0.15           U   4
Residuals in seconds of arc
180611 F52  0.1-  0.1-    180612 G58  0.5-  0.2+    180612 I52  0.2+  0.2-
180611 F52  0.0   0.2+    180612 G58  0.2-  0.1+    180612 I52  0.1-  0.1+
180611 F52  0.2-  0.0     180612 G58  0.0   0.0     180612 I52  0.5-  0.3+
180612 I52  0.2+  0.0     180612 G58  0.2+  0.4-    180612 E08  0.1-  0.5-
180612 I52  0.3+  0.2-    180612 G58  0.3-  0.0     180612 E08  0.4-  0.9+
180612 I52  0.0   0.2-    180612 G58  0.1-  0.3-
180612 I52  0.1+  0.2+    180612 I52  0.2-  0.2-

Ephemeris:
2018 LV3                 a,e,i = 2.01, 0.53, 9                   q = 0.9526
Date    TT    R. A. (2000) Decl.     Delta      r     Elong.  Phase     V
2018 05 13    15 41 06.7 +08 45 46   0.2219  1.2114   152.4    22.7    24.7
...
2018 05 28    15 39 03.0 +10 28 30   0.1170  1.1130   146.7    30.0    23.4
...
2018 06 05    15 38 06.2 +10 18 56   0.06475 1.0667   142.7    35.2    22.1
...
2018 06 11    15 38 42.7 +07 44 20   0.02630 1.0359   141.2    37.9    20.2
2018 06 12    15 39 19.7 +06 13 23   0.01994 1.0312   141.8    37.6    19.6
2018 06 13    15 40 35.7 +03 15 53   0.01361 1.0265   143.5    36.1    18.7
...
2018 06 19    03 34 26.1 -16 33 37   0.02494 1.0008    51.7   127.2    23.9
...
2018 06 27    03 37 18.0 -12 46 29   0.07591 0.9739    54.1   122.3    25.9
...
2018 07 12    03 44 49.6 -10 23 42   0.1708  0.9505    62.7   108.1    26.6

A. U. Tomatic                (C) Copyright 2018 MPC           M.P.E.C. 2018-L59



More information about the Iaude mailing list